Shreveport, LA

9:20 PM CDT on September 30, 2016 (GMT -0500)
Shreveport Regional

Weather History for KSHV - February, 2012

Change the Weather History Date:

Thursday, February 23, 2012

  Actual Average Record
Temperature  
Mean Temperature 75 °F 52 °F  
Max Temperature 87 °F 64 °F 87 °F (2012)
Min Temperature 63 °F 42 °F 21 °F (1901)
Degree Days  
Heating Degree Days 0 13  
Month to date heating degree days 264 349  
Since 1 July heating degree days 1425 1821  
Cooling Degree Days 10 0  
Month to date cooling degree days 25 0  
Year to date cooling degree days 29 4  
Growing Degree Days 26 (Base 50)    
Moisture  
Dew Point 51 °F    
Average Humidity 52    
Maximum Humidity 87    
Minimum Humidity 17    
Precipitation  
Precipitation 0.00 in 0.17 in 1.47 in (1885)
Month to date precipitation 3.52 3.95  
Year to date precipitation 6.71 8.15  
Snow  
Snow 0.00 in - - ()
Month to date snowfall T  
Since 1 July snowfall T  
Snow Depth 0.00 in    
Sea Level Pressure  
Sea Level Pressure 29.51 in    
Wind  
Wind Speed 15 mph (SW)    
Max Wind Speed 32 mph    
Max Gust Speed 40 mph    
Visibility 10 miles    
Events      
T = Trace of Precipitation, MM = Missing Value Source: NWS Daily Summary

Daily Weather History Graph

Daily Weather History Graph

Search for Another Location

Airport or City:

Trip Planner

Search our weather history database for the weather conditions in past years. The results will help you decide how hot, cold, wet, or windy it might be!

Date:

Astronomy

Feb. 23, 2012 Rise Set
Actual Time 6:50 AM CST 6:07 PM CST
Civil Twilight 6:25 AM CST 6:32 PM CST
Nautical Twilight 5:56 AM CST 7:01 PM CST
Astronomical Twilight 5:28 AM CST 7:29 PM CST
Moon 7:26 AM CST (2/23) 8:02 PM CST (2/23)
Length of Visible Light 12h 06m
Length of Day
11h 17m
Waxing Crescent, 3% of the Moon is Illuminated
Feb 23
Waxing Crescent
Feb 29
First Quarter
Mar 8
Full
Mar 14
Last Quarter
Mar 22
New

Hourly Weather History & Observations

Time (CST) Temp. Heat Index Dew Point Humidity Pressure Visibility Wind Dir Wind Speed Gust Speed Precip Events Conditions
12:56 AM 64.9 °F - 55.9 °F 73% 29.60 in 10.0 mi South 8.1 mph - N/A   Partly Cloudy
1:56 AM 66.0 °F - 59.0 °F 78% 29.57 in 10.0 mi SSW 10.4 mph - N/A   Partly Cloudy
2:56 AM 66.0 °F - 60.1 °F 81% 29.54 in 10.0 mi SSW 10.4 mph - N/A   Partly Cloudy
3:56 AM 66.0 °F - 61.0 °F 84% 29.52 in 10.0 mi SSW 10.4 mph 19.6 mph N/A   Scattered Clouds
4:56 AM 66.0 °F - 60.1 °F 81% 29.51 in 10.0 mi SSW 13.8 mph 25.3 mph N/A   Scattered Clouds
5:56 AM 66.0 °F - 61.0 °F 84% 29.51 in 10.0 mi SSW 16.1 mph 27.6 mph N/A   Scattered Clouds
6:44 AM 66.2 °F - 60.8 °F 83% 29.52 in 10.0 mi SSW 13.8 mph 21.9 mph N/A   Mostly Cloudy
6:56 AM 66.0 °F - 61.0 °F 84% 29.51 in 10.0 mi SSW 13.8 mph 21.9 mph N/A   Mostly Cloudy
7:56 AM 66.9 °F - 62.1 °F 84% 29.51 in 10.0 mi SSW 18.4 mph 24.2 mph N/A   Mostly Cloudy
8:10 AM 66.2 °F - 60.8 °F 83% 29.52 in 10.0 mi SSW 15.0 mph 26.5 mph N/A   Mostly Cloudy
8:56 AM 70.0 °F - 61.0 °F 73% 29.50 in 10.0 mi SSW 16.1 mph 26.5 mph N/A   Mostly Cloudy
9:56 AM 73.9 °F - 60.1 °F 62% 29.50 in 10.0 mi SSW 16.1 mph 25.3 mph N/A   Mostly Cloudy
10:56 AM 79.0 °F - 55.9 °F 45% 29.48 in 10.0 mi SW 24.2 mph 32.2 mph N/A   Mostly Cloudy
11:56 AM 82.0 °F 81.2 °F 53.1 °F 37% 29.47 in 10.0 mi WSW 27.6 mph 40.3 mph N/A   Mostly Cloudy
12:56 PM 84.0 °F - 51.1 °F 32% 29.45 in 10.0 mi SW 20.7 mph 34.5 mph N/A   Mostly Cloudy
1:56 PM 82.9 °F - 50.0 °F 32% 29.43 in 10.0 mi SW 20.7 mph 40.3 mph N/A   Mostly Cloudy
2:56 PM 84.9 °F - 43.0 °F 23% 29.42 in 10.0 mi WSW 23.0 mph 40.3 mph N/A   Mostly Cloudy
3:56 PM 87.1 °F - 37.9 °F 18% 29.42 in 10.0 mi West 24.2 mph 31.1 mph N/A   Mostly Cloudy
4:56 PM 84.9 °F - 36.0 °F 17% 29.42 in 10.0 mi West 15.0 mph 23.0 mph N/A   Scattered Clouds
5:56 PM 82.0 °F - 36.0 °F 19% 29.46 in 10.0 mi West 15.0 mph 21.9 mph N/A   Mostly Cloudy
6:56 PM 79.0 °F - 37.0 °F 22% 29.49 in 10.0 mi West 10.4 mph - N/A   Mostly Cloudy
7:56 PM 75.9 °F - 37.9 °F 25% 29.52 in 10.0 mi West 8.1 mph - N/A   Mostly Cloudy
8:56 PM 75.0 °F - 37.0 °F 25% 29.56 in 10.0 mi WNW 9.2 mph - N/A   Mostly Cloudy
9:56 PM 73.0 °F - 39.0 °F 29% 29.60 in 10.0 mi NW 13.8 mph - N/A   Mostly Cloudy
10:56 PM 70.0 °F - 41.0 °F 35% 29.64 in 10.0 mi NNW 10.4 mph - N/A   Mostly Cloudy
11:56 PM 66.9 °F - 43.0 °F 42% 29.68 in 10.0 mi NNW 9.2 mph - N/A   Mostly Cloudy